| time (UTC) | temp F | wind direction | speed MPH | gust MPH | rain 1hr in | rain 24hr in | rain mn in | humidity % | barometer mb |
| 20260505021504 | 59 | 360 | 0.0 | 0.0 | 0.00 | 0.00 | 0.00 | 72 | 1013.9 |
| 20260505020003 | 60 | 360 | 0.0 | 0.0 | 0.00 | 0.00 | 0.00 | 70 | 1013.7 |
| 20260505014514 | 61 | 254 | 0.0 | 0.0 | 0.00 | 0.00 | 0.00 | 67 | 1013.7 |
| 20260505013013 | 62 | 254 | 0.0 | 0.0 | 0.00 | 0.00 | 0.00 | 64 | 1013.7 |
| 20260505011520 | 64 | 254 | 0.0 | 0.0 | 0.00 | 0.00 | 0.00 | 60 | 1013.5 |
| 20260505010011 | 65 | 254 | 0.0 | 2.0 | 0.00 | 0.00 | 0.00 | 56 | 1013.5 |
| 20260505004508 | 67 | 360 | 0.0 | 2.0 | 0.00 | 0.00 | 0.00 | 49 | 1013.6 |
| 20260505003012 | 69 | 254 | 0.0 | 2.0 | 0.00 | 0.00 | 0.00 | 49 | 1013.6 |
| 20260505001516 | 72 | 360 | 1.0 | 2.0 | 0.00 | 0.00 | 0.00 | 43 | 1013.6 |
| 20260505000023 | 73 | 360 | 2.0 | 8.0 | 0.00 | 0.00 | 0.00 | 39 | 1013.7 |
| 20260504234507 | 74 | 229 | 1.0 | 9.0 | 0.00 | 0.00 | 0.00 | 37 | 1013.5 |
| 20260504233010 | 75 | 228 | 2.0 | 7.0 | 0.00 | 0.00 | 0.00 | 36 | 1013.7 |
| 20260504231515 | 76 | 202 | 2.0 | 9.0 | 0.00 | 0.00 | 0.00 | 35 | 1013.8 |
| 20260504230019 | 76 | 241 | 5.0 | 9.0 | 0.00 | 0.00 | 0.00 | 34 | 1013.8 |
| 20260504224525 | 76 | 202 | 5.0 | 9.0 | 0.00 | 0.00 | 0.00 | 32 | 1013.9 |
| 20260504223010 | 76 | 252 | 3.0 | 9.0 | 0.00 | 0.00 | 0.00 | 33 | 1014.0 |
| 20260504221511 | 77 | 216 | 7.0 | 11.0 | 0.00 | 0.00 | 0.00 | 31 | 1014.0 |
| 20260504220018 | 77 | 187 | 2.0 | 10.0 | 0.00 | 0.00 | 0.00 | 30 | 1014.1 |
| 20260504214535 | 77 | 254 | 5.0 | 7.0 | 0.00 | 0.00 | 0.00 | 33 | 1014.2 |
| 20260504213028 | 77 | 247 | 5.0 | 11.0 | 0.00 | 0.00 | 0.00 | 32 | 1014.2 |
| 20260504211510 | 77 | 236 | 6.0 | 14.0 | 0.00 | 0.00 | 0.00 | 31 | 1014.2 |
| 20260504210020 | 77 | 153 | 4.0 | 9.0 | 0.00 | 0.00 | 0.00 | 32 | 1014.0 |
| 20260504204522 | 76 | 127 | 4.0 | 8.0 | 0.00 | 0.00 | 0.00 | 33 | 1014.4 |
| 20260504203024 | 77 | 162 | 6.0 | 9.0 | 0.00 | 0.00 | 0.00 | 34 | 1014.2 |
| 20260504201526 | 76 | 246 | 4.0 | 9.0 | 0.00 | 0.00 | 0.00 | 36 | 1014.3 |
| 20260504200018 | 76 | 173 | 2.0 | 11.0 | 0.00 | 0.00 | 0.00 | 35 | 1014.5 |
| 20260504194519 | 77 | 252 | 7.0 | 12.0 | 0.00 | 0.00 | 0.00 | 33 | 1014.8 |
| 20260504193023 | 76 | 196 | 4.0 | 11.0 | 0.00 | 0.00 | 0.00 | 34 | 1015.0 |
| 20260504191526 | 76 | 123 | 1.0 | 7.0 | 0.00 | 0.00 | 0.00 | 33 | 1015.1 |
| 20260504190028 | 76 | 203 | 5.0 | 9.0 | 0.00 | 0.00 | 0.00 | 33 | 1015.5 |
| 20260504184526 | 75 | 196 | 2.0 | 7.0 | 0.00 | 0.00 | 0.00 | 35 | 1015.6 |
| 20260504183031 | 75 | 360 | 1.0 | 9.0 | 0.00 | 0.00 | 0.00 | 36 | 1015.9 |
| 20260504181526 | 74 | 360 | 2.0 | 9.0 | 0.00 | 0.00 | 0.00 | 39 | 1016.0 |
| 20260504180027 | 74 | 360 | 1.0 | 10.0 | 0.00 | 0.00 | 0.00 | 39 | 1016.3 |
| 20260504174516 | 74 | 360 | 3.0 | 8.0 | 0.00 | 0.00 | 0.00 | 40 | 1016.4 |
| 20260504173018 | 74 | 360 | 2.0 | 8.0 | 0.00 | 0.00 | 0.00 | 38 | 1016.5 |
| 20260504171504 | 73 | 269 | 3.0 | 8.0 | 0.00 | 0.00 | 0.00 | 39 | 1016.6 |
| 20260504081508 | 54 | 213 | 0.0 | 2.0 | 0.00 | 0.00 | 0.00 | 61 | 1017.0 |
| 20260504050022 | 49 | 86 | 0.0 | 2.0 | 0.00 | 0.00 | 0.00 | 83 | 1018.2 |
| 20260504044511 | 49 | 86 | 0.0 | 0.0 | 0.00 | 0.00 | 0.00 | 81 | 1018.2 |
| 20260504043013 | 50 | 86 | 0.0 | 0.0 | 0.00 | 0.00 | 0.00 | 82 | 1018.1 |
| 20260504041517 | 50 | 86 | 0.0 | 0.0 | 0.00 | 0.00 | 0.00 | 81 | 1018.4 |
| 20260504040022 | 50 | 86 | 0.0 | 0.0 | 0.00 | 0.00 | 0.00 | 80 | 1018.5 |
| 20260504034525 | 51 | 86 | 0.0 | 2.0 | 0.00 | 0.00 | 0.00 | 80 | 1018.7 |
| 20260504033012 | 51 | 86 | 0.0 | 0.0 | 0.00 | 0.00 | 0.00 | 78 | 1018.6 |
| 20260504031515 | 51 | 86 | 0.0 | 0.0 | 0.00 | 0.00 | 0.00 | 77 | 1018.5 |
| 20260504030021 | 52 | 86 | 0.0 | 0.0 | 0.00 | 0.00 | 0.00 | 76 | 1018.5 |
| 20260504024524 | 53 | 86 | 0.0 | 2.0 | 0.00 | 0.00 | 0.00 | 79 | 1018.3 |
| 20260504023025 | 53 | 86 | 0.0 | 0.0 | 0.00 | 0.00 | 0.00 | 75 | 1018.3 |